Year,Month,Day,Hour,Minute,Value (Times are PST for temperature in C)
2006,04,26,00,00,7.80
2006,04,26,00,01,7.70
2006,04,26,00,02,7.80
2006,04,26,00,03,7.80
2006,04,26,00,04,7.80
2006,04,26,00,05,7.80
2006,04,26,00,06,7.80
2006,04,26,00,07,7.80
2006,04,26,00,08,7.80
2006,04,26,00,09,7.80
2006,04,26,00,10,7.80
2006,04,26,00,11,7.80
2006,04,26,00,12,7.80
2006,04,26,00,13,7.80
2006,04,26,00,14,7.80
2006,04,26,00,15,7.80
2006,04,26,00,16,7.80
2006,04,26,00,17,7.80
2006,04,26,00,18,7.80
2006,04,26,00,19,7.80
2006,04,26,00,20,7.80
2006,04,26,00,21,7.80
2006,04,26,00,22,7.80
2006,04,26,00,23,7.80
2006,04,26,00,24,7.80
2006,04,26,00,25,7.80
2006,04,26,00,26,7.80
2006,04,26,00,27,7.80
2006,04,26,00,28,7.80
2006,04,26,00,29,7.80
2006,04,26,00,30,7.80
2006,04,26,00,31,7.80
2006,04,26,00,32,7.80
2006,04,26,00,33,7.80
2006,04,26,00,34,7.80
2006,04,26,00,35,7.80
2006,04,26,00,36,7.80
2006,04,26,00,37,7.80
2006,04,26,00,38,7.80
2006,04,26,00,39,7.80
2006,04,26,00,40,7.80
2006,04,26,00,41,7.80
2006,04,26,00,42,7.80
2006,04,26,00,43,7.80
2006,04,26,00,44,7.80
2006,04,26,00,45,7.80
2006,04,26,00,46,7.80
2006,04,26,00,47,7.80
2006,04,26,00,48,7.80
2006,04,26,00,49,7.80
2006,04,26,00,50,7.80
2006,04,26,00,51,7.80
2006,04,26,00,52,7.80
2006,04,26,00,53,7.80
2006,04,26,00,54,7.80
2006,04,26,00,55,7.80
2006,04,26,00,56,7.80
2006,04,26,00,57,7.80
2006,04,26,00,58,7.80
2006,04,26,00,59,7.80
2006,04,26,01,00,7.80
2006,04,26,01,01,7.80
2006,04,26,01,02,7.80
2006,04,26,01,03,7.80
2006,04,26,01,04,7.80
2006,04,26,01,05,7.80
2006,04,26,01,06,7.80
2006,04,26,01,07,7.80
2006,04,26,01,08,7.80
2006,04,26,01,09,7.80
2006,04,26,01,10,7.80
2006,04,26,01,11,7.80
2006,04,26,01,12,7.80
2006,04,26,01,13,7.80
2006,04,26,01,14,7.80
2006,04,26,01,15,7.80
2006,04,26,01,16,7.80
2006,04,26,01,17,7.80
2006,04,26,01,18,7.80
2006,04,26,01,19,7.80
2006,04,26,01,20,7.80
2006,04,26,01,21,7.80
2006,04,26,01,22,7.80
2006,04,26,01,23,7.80
2006,04,26,01,24,7.80
2006,04,26,01,25,7.80
2006,04,26,01,26,7.80
2006,04,26,01,27,7.80
2006,04,26,01,28,7.80
2006,04,26,01,29,7.80
2006,04,26,01,30,7.80
2006,04,26,01,31,7.80
2006,04,26,01,32,7.80
2006,04,26,01,33,7.80
2006,04,26,01,34,7.80
2006,04,26,01,35,7.80
2006,04,26,01,36,7.80
2006,04,26,01,37,7.80
2006,04,26,01,38,7.80
2006,04,26,01,39,7.80
2006,04,26,01,40,7.80
2006,04,26,01,41,7.80
2006,04,26,01,42,7.80
2006,04,26,01,43,7.80
2006,04,26,01,44,7.80
2006,04,26,01,45,7.80
2006,04,26,01,46,7.70
2006,04,26,01,47,7.70
2006,04,26,01,48,7.70
2006,04,26,01,49,7.70
2006,04,26,01,50,7.70
2006,04,26,01,51,7.70
2006,04,26,01,52,7.70
2006,04,26,01,53,7.70
2006,04,26,01,54,7.70
2006,04,26,01,55,7.70
2006,04,26,01,56,7.70
2006,04,26,01,57,7.60
2006,04,26,01,58,7.60
2006,04,26,01,59,7.60
2006,04,26,02,00,7.60
2006,04,26,02,01,7.60
2006,04,26,02,02,7.60
2006,04,26,02,03,7.60
2006,04,26,02,04,7.60
2006,04,26,02,05,7.60
2006,04,26,02,06,7.60
2006,04,26,02,07,7.60
2006,04,26,02,08,7.60
2006,04,26,02,09,7.60
2006,04,26,02,10,7.60
2006,04,26,02,11,7.60
2006,04,26,02,12,7.60
2006,04,26,02,13,7.50
2006,04,26,02,14,7.50
2006,04,26,02,15,7.50
2006,04,26,02,16,7.50
2006,04,26,02,17,7.50
2006,04,26,02,18,7.50
2006,04,26,02,19,7.50
2006,04,26,02,20,7.50
2006,04,26,02,21,7.50
2006,04,26,02,22,7.50
2006,04,26,02,23,7.50
2006,04,26,02,24,7.50
2006,04,26,02,25,7.50
2006,04,26,02,26,7.50
2006,04,26,02,27,7.50
2006,04,26,02,28,7.50
2006,04,26,02,29,7.50
2006,04,26,02,30,7.50
2006,04,26,02,31,7.50
2006,04,26,02,32,7.50
2006,04,26,02,33,7.40
2006,04,26,02,34,7.40
2006,04,26,02,35,7.40
2006,04,26,02,36,7.40
2006,04,26,02,37,7.40
2006,04,26,02,38,7.40
2006,04,26,02,39,7.40
2006,04,26,02,40,7.40
2006,04,26,02,41,7.40
2006,04,26,02,42,7.40
2006,04,26,02,43,7.40
2006,04,26,02,44,7.40
2006,04,26,02,45,7.40
2006,04,26,02,46,7.40
2006,04,26,02,47,7.40
2006,04,26,02,48,7.40
2006,04,26,02,49,7.40
2006,04,26,02,50,7.40
2006,04,26,02,51,7.40
2006,04,26,02,52,7.40
2006,04,26,02,53,7.40
2006,04,26,02,54,7.40
2006,04,26,02,55,7.30
2006,04,26,02,56,7.30
2006,04,26,02,57,7.30
2006,04,26,02,58,7.30
2006,04,26,02,59,7.30
2006,04,26,03,00,7.30
2006,04,26,03,01,7.30
2006,04,26,03,02,7.40
2006,04,26,03,03,7.40
2006,04,26,03,04,7.40
2006,04,26,03,05,7.40
2006,04,26,03,06,7.30
2006,04,26,03,07,7.30
2006,04,26,03,08,7.30
2006,04,26,03,09,7.30
2006,04,26,03,10,7.30
2006,04,26,03,11,7.40
2006,04,26,03,12,7.30
2006,04,26,03,13,7.40
2006,04,26,03,14,7.40
2006,04,26,03,15,7.40
2006,04,26,03,16,7.40
2006,04,26,03,17,7.30
2006,04,26,03,18,7.30
2006,04,26,03,19,7.30
2006,04,26,03,20,7.30
2006,04,26,03,21,7.30
2006,04,26,03,22,7.30
2006,04,26,03,23,7.30
2006,04,26,03,24,7.30
2006,04,26,03,25,7.30
2006,04,26,03,26,7.30
2006,04,26,03,27,7.30
2006,04,26,03,28,7.30
2006,04,26,03,29,7.30
2006,04,26,03,30,7.30
2006,04,26,03,31,7.30
2006,04,26,03,32,7.30
2006,04,26,03,33,7.30
2006,04,26,03,34,7.30
2006,04,26,03,35,7.30
2006,04,26,03,36,7.30
2006,04,26,03,37,7.30
2006,04,26,03,38,7.30
2006,04,26,03,39,7.30
2006,04,26,03,40,7.30
2006,04,26,03,41,7.30
2006,04,26,03,42,7.30
2006,04,26,03,43,7.30
2006,04,26,03,44,7.30
2006,04,26,03,45,7.30
2006,04,26,03,46,7.30
2006,04,26,03,47,7.30
2006,04,26,03,48,7.20
2006,04,26,03,49,7.20
2006,04,26,03,50,7.20
2006,04,26,03,51,7.20
2006,04,26,03,52,7.20
2006,04,26,03,53,7.20
2006,04,26,03,54,7.20
2006,04,26,03,55,7.20
2006,04,26,03,56,7.20
2006,04,26,03,57,7.20
2006,04,26,03,58,7.10
2006,04,26,03,59,7.10
2006,04,26,04,00,7.10
2006,04,26,04,01,7.10
2006,04,26,04,02,7.10
2006,04,26,04,03,7.10
2006,04,26,04,04,7.10
2006,04,26,04,05,7.10
2006,04,26,04,06,7.10
2006,04,26,04,07,7.10
2006,04,26,04,08,7.10
2006,04,26,04,09,7.10
2006,04,26,04,10,7.10
2006,04,26,04,11,7.10
2006,04,26,04,12,7.10
2006,04,26,04,13,7.10
2006,04,26,04,14,7.10
2006,04,26,04,15,7.10
2006,04,26,04,16,7.00
2006,04,26,04,17,7.00
2006,04,26,04,18,7.00
2006,04,26,04,19,7.00
2006,04,26,04,20,7.00
2006,04,26,04,21,7.10
2006,04,26,04,22,7.10
2006,04,26,04,23,7.10
2006,04,26,04,24,7.10
2006,04,26,04,25,7.10
2006,04,26,04,26,7.10
2006,04,26,04,27,7.10
2006,04,26,04,28,7.10
2006,04,26,04,29,7.10
2006,04,26,04,30,7.10
2006,04,26,04,31,7.10
2006,04,26,04,32,7.10
2006,04,26,04,33,7.10
2006,04,26,04,34,7.10
2006,04,26,04,35,7.10
2006,04,26,04,36,7.10
2006,04,26,04,37,7.10
2006,04,26,04,38,7.10
2006,04,26,04,39,7.10
2006,04,26,04,40,7.10
2006,04,26,04,41,7.10
2006,04,26,04,42,7.10
2006,04,26,04,43,7.10
2006,04,26,04,44,7.10
2006,04,26,04,45,7.10
2006,04,26,04,46,7.10
2006,04,26,04,47,7.10
2006,04,26,04,48,7.10
2006,04,26,04,49,7.10
2006,04,26,04,50,7.10
2006,04,26,04,51,7.10
2006,04,26,04,52,7.20
2006,04,26,04,53,7.20
2006,04,26,04,54,7.20
2006,04,26,04,55,7.20
2006,04,26,04,56,7.20
2006,04,26,04,57,7.20
2006,04,26,04,58,7.20
2006,04,26,04,59,7.20
2006,04,26,05,00,7.20
2006,04,26,05,01,7.20
2006,04,26,05,02,7.20
2006,04,26,05,03,7.20
2006,04,26,05,04,7.20
2006,04,26,05,05,7.20
2006,04,26,05,06,7.20
2006,04,26,05,07,7.20
2006,04,26,05,08,7.20
2006,04,26,05,09,7.20
2006,04,26,05,10,7.20
2006,04,26,05,11,7.20
2006,04,26,05,12,7.20
2006,04,26,05,13,7.20
2006,04,26,05,14,7.20
2006,04,26,05,15,7.20
2006,04,26,05,16,7.20
2006,04,26,05,17,7.30
2006,04,26,05,18,7.30
2006,04,26,05,19,7.30
2006,04,26,05,20,7.30
2006,04,26,05,21,7.30
2006,04,26,05,22,7.30
2006,04,26,05,23,7.30
2006,04,26,05,24,7.30
2006,04,26,05,25,7.30
2006,04,26,05,26,7.30
2006,04,26,05,27,7.30
2006,04,26,05,28,7.30
2006,04,26,05,29,7.30
2006,04,26,05,30,7.30
2006,04,26,05,31,7.30
2006,04,26,05,32,7.30
2006,04,26,05,33,7.30
2006,04,26,05,34,7.30
2006,04,26,05,35,7.30
2006,04,26,05,36,7.30
2006,04,26,05,37,7.30
2006,04,26,05,38,7.30
2006,04,26,05,39,7.30
2006,04,26,05,40,7.30
2006,04,26,05,41,7.30
2006,04,26,05,42,7.30
2006,04,26,05,43,7.30
2006,04,26,05,44,7.30
2006,04,26,05,45,7.30
2006,04,26,05,46,7.30
2006,04,26,05,47,7.30
2006,04,26,05,48,7.30
2006,04,26,05,49,7.30
2006,04,26,05,50,7.30
2006,04,26,05,51,7.30
2006,04,26,05,52,7.30
2006,04,26,05,53,7.30
2006,04,26,05,54,7.20
2006,04,26,05,55,7.20
2006,04,26,05,56,7.20
2006,04,26,05,57,7.20
2006,04,26,05,58,7.20
2006,04,26,05,59,7.20
2006,04,26,06,00,7.30
2006,04,26,06,01,7.30
2006,04,26,06,02,7.30
2006,04,26,06,03,7.30
2006,04,26,06,04,7.30
2006,04,26,06,05,7.30
2006,04,26,06,06,7.30
2006,04,26,06,07,7.30
2006,04,26,06,08,7.30
2006,04,26,06,09,7.30
2006,04,26,06,10,7.30
2006,04,26,06,11,7.30
2006,04,26,06,12,7.30
2006,04,26,06,13,7.30
2006,04,26,06,14,7.30
2006,04,26,06,15,7.30
2006,04,26,06,16,7.30
2006,04,26,06,17,7.30
2006,04,26,06,18,7.40
2006,04,26,06,19,7.40
2006,04,26,06,20,7.40
2006,04,26,06,21,7.40
2006,04,26,06,22,7.40
2006,04,26,06,23,7.50
2006,04,26,06,24,7.50
2006,04,26,06,25,7.50
2006,04,26,06,26,7.50
2006,04,26,06,27,7.50
2006,04,26,06,28,7.50
2006,04,26,06,29,7.50
2006,04,26,06,30,7.50
2006,04,26,06,31,7.50
2006,04,26,06,32,7.50
2006,04,26,06,33,7.50
2006,04,26,06,34,7.50
2006,04,26,06,35,7.50
2006,04,26,06,36,7.60
2006,04,26,06,37,7.60
2006,04,26,06,38,7.60
2006,04,26,06,39,7.60
2006,04,26,06,40,7.60
2006,04,26,06,41,7.60
2006,04,26,06,42,7.60
2006,04,26,06,43,7.60
2006,04,26,06,44,7.60
2006,04,26,06,45,7.60
2006,04,26,06,46,7.60
2006,04,26,06,47,7.60
2006,04,26,06,48,7.60
2006,04,26,06,49,7.60
2006,04,26,06,50,7.60
2006,04,26,06,51,7.60
2006,04,26,06,52,7.60
2006,04,26,06,53,7.60
2006,04,26,06,54,7.60
2006,04,26,06,55,7.60
2006,04,26,06,56,7.60
2006,04,26,06,57,7.60
2006,04,26,06,58,7.70
2006,04,26,06,59,7.70
2006,04,26,07,00,7.70
2006,04,26,07,01,7.70
2006,04,26,07,02,7.70
2006,04,26,07,03,7.70
2006,04,26,07,04,7.70
2006,04,26,07,05,7.70
2006,04,26,07,06,7.70
2006,04,26,07,07,7.70
2006,04,26,07,08,7.80
2006,04,26,07,09,7.80
2006,04,26,07,10,7.80
2006,04,26,07,11,7.80
2006,04,26,07,12,7.80
2006,04,26,07,13,7.80
2006,04,26,07,14,7.80
2006,04,26,07,15,7.80
2006,04,26,07,16,7.80
2006,04,26,07,17,7.90
2006,04,26,07,18,7.90
2006,04,26,07,19,7.90
2006,04,26,07,20,7.90
2006,04,26,07,21,7.90
2006,04,26,07,22,7.90
2006,04,26,07,23,7.90
2006,04,26,07,24,7.90
2006,04,26,07,25,7.90
2006,04,26,07,26,7.90
2006,04,26,07,27,7.90
2006,04,26,07,28,7.90
2006,04,26,07,29,7.90
2006,04,26,07,30,7.90
2006,04,26,07,31,7.90
2006,04,26,07,32,7.90
2006,04,26,07,33,7.90
2006,04,26,07,34,7.90
2006,04,26,07,35,7.80
2006,04,26,07,36,7.80
2006,04,26,07,37,7.80
2006,04,26,07,38,7.80
2006,04,26,07,39,7.90
2006,04,26,07,40,7.90
2006,04,26,07,41,7.90
2006,04,26,07,42,7.90
2006,04,26,07,43,7.90
2006,04,26,07,44,7.90
2006,04,26,07,45,7.90
2006,04,26,07,46,7.90
2006,04,26,07,47,7.90
2006,04,26,07,48,7.90
2006,04,26,07,49,7.90
2006,04,26,07,50,7.90
2006,04,26,07,51,8.00
2006,04,26,07,52,8.00
2006,04,26,07,53,8.00
2006,04,26,07,54,8.10
2006,04,26,07,55,8.10
2006,04,26,07,56,8.10
2006,04,26,07,57,8.10
2006,04,26,07,58,8.20
2006,04,26,07,59,8.20
2006,04,26,08,00,8.20
2006,04,26,08,01,8.20
2006,04,26,08,02,8.20
2006,04,26,08,03,8.20
2006,04,26,08,04,8.20
2006,04,26,08,05,8.20
2006,04,26,08,06,8.20
2006,04,26,08,07,8.20
2006,04,26,08,08,8.20
2006,04,26,08,09,8.30
2006,04,26,08,10,8.30
2006,04,26,08,11,8.30
2006,04,26,08,12,8.30
2006,04,26,08,13,8.30
2006,04,26,08,14,8.30
2006,04,26,08,15,8.40
2006,04,26,08,16,8.40
2006,04,26,08,17,8.40
2006,04,26,08,18,8.50
2006,04,26,08,19,8.50
2006,04,26,08,20,8.50
2006,04,26,08,21,8.50
2006,04,26,08,22,8.50
2006,04,26,08,23,8.60
2006,04,26,08,24,8.60
2006,04,26,08,25,8.60
2006,04,26,08,26,8.60
2006,04,26,08,27,8.70
2006,04,26,08,28,8.70
2006,04,26,08,29,8.70
2006,04,26,08,30,8.70
2006,04,26,08,31,8.70
2006,04,26,08,32,8.70
2006,04,26,08,33,8.70
2006,04,26,08,34,8.70
2006,04,26,08,35,8.70
2006,04,26,08,36,8.80
2006,04,26,08,37,8.80
2006,04,26,08,38,8.90
2006,04,26,08,39,8.90
2006,04,26,08,40,9.00
2006,04,26,08,41,9.00
2006,04,26,08,42,9.00
2006,04,26,08,43,9.00
2006,04,26,08,44,9.00
2006,04,26,08,45,9.00
2006,04,26,08,46,9.00
2006,04,26,08,47,9.00
2006,04,26,08,48,9.00
2006,04,26,08,49,9.00
2006,04,26,08,50,9.00
2006,04,26,08,51,9.00
2006,04,26,08,52,8.90
2006,04,26,08,53,8.90
2006,04,26,08,54,8.90
2006,04,26,08,55,8.90
2006,04,26,08,56,8.90
2006,04,26,08,57,8.90
2006,04,26,08,58,8.90
2006,04,26,08,59,8.90
2006,04,26,09,00,8.90
2006,04,26,09,01,8.90
2006,04,26,09,02,8.90
2006,04,26,09,03,8.90
2006,04,26,09,04,8.90
2006,04,26,09,05,8.90
2006,04,26,09,06,8.90
2006,04,26,09,07,8.90
2006,04,26,09,08,8.90
2006,04,26,09,09,8.90
2006,04,26,09,10,9.00
2006,04,26,09,11,9.00
2006,04,26,09,12,9.00
2006,04,26,09,13,8.90
2006,04,26,09,14,8.90
2006,04,26,09,15,8.90
2006,04,26,09,16,8.90
2006,04,26,09,17,8.90
2006,04,26,09,18,8.90
2006,04,26,09,19,9.00
2006,04,26,09,20,9.00
2006,04,26,09,21,9.00
2006,04,26,09,22,9.00
2006,04,26,09,23,9.00
2006,04,26,09,24,9.00
2006,04,26,09,25,9.00
2006,04,26,09,26,9.00
2006,04,26,09,27,9.00
2006,04,26,09,28,9.00
2006,04,26,09,29,9.00
2006,04,26,09,30,9.00
2006,04,26,09,31,9.00
2006,04,26,09,32,8.90
2006,04,26,09,33,8.90
2006,04,26,09,34,8.90
2006,04,26,09,35,8.90
2006,04,26,09,36,8.90
2006,04,26,09,37,8.90
2006,04,26,09,38,8.90
2006,04,26,09,39,8.90
2006,04,26,09,40,8.90
2006,04,26,09,41,8.90
2006,04,26,09,42,9.00
2006,04,26,09,43,9.00
2006,04,26,09,44,9.00
2006,04,26,09,45,9.10
2006,04,26,09,46,9.10
2006,04,26,09,47,9.20
2006,04,26,09,48,9.20
2006,04,26,09,49,9.20
2006,04,26,09,50,9.30
2006,04,26,09,51,9.40
2006,04,26,09,52,9.40
2006,04,26,09,53,9.50
2006,04,26,09,54,9.50
2006,04,26,09,55,9.50
2006,04,26,09,56,9.50
2006,04,26,09,57,9.50
2006,04,26,09,58,9.50
2006,04,26,09,59,9.40
2006,04,26,10,00,9.40
2006,04,26,10,01,9.30
2006,04,26,10,02,9.30
2006,04,26,10,03,9.30
2006,04,26,10,04,9.30
2006,04,26,10,05,9.40
2006,04,26,10,06,9.40
2006,04,26,10,07,9.30
2006,04,26,10,08,9.30
2006,04,26,10,09,9.40
2006,04,26,10,10,9.40
2006,04,26,10,11,9.30
2006,04,26,10,12,9.30
2006,04,26,10,13,9.30
2006,04,26,10,14,9.30
2006,04,26,10,15,9.40
2006,04,26,10,16,9.40
2006,04,26,10,17,9.50
2006,04,26,10,18,9.50
2006,04,26,10,19,9.60
2006,04,26,10,20,9.70
2006,04,26,10,21,9.70
2006,04,26,10,22,9.70
2006,04,26,10,23,9.70
2006,04,26,10,24,9.70
2006,04,26,10,25,9.70
2006,04,26,10,26,9.70
2006,04,26,10,27,9.70
2006,04,26,10,28,9.70
2006,04,26,10,29,9.80
2006,04,26,10,30,9.90
2006,04,26,10,31,9.80
2006,04,26,10,32,9.80
2006,04,26,10,33,9.80
2006,04,26,10,34,9.70
2006,04,26,10,35,9.70
2006,04,26,10,36,9.80
2006,04,26,10,37,9.80
2006,04,26,10,38,9.90
2006,04,26,10,39,9.90
2006,04,26,10,40,10.00
2006,04,26,10,41,10.10
2006,04,26,10,42,10.10
2006,04,26,10,43,10.20
2006,04,26,10,44,10.10
2006,04,26,10,45,10.10
2006,04,26,10,46,10.10
2006,04,26,10,47,10.10
2006,04,26,10,48,10.00
2006,04,26,10,49,9.90
2006,04,26,10,50,9.90
2006,04,26,10,51,10.00
2006,04,26,10,52,10.10
2006,04,26,10,53,10.10
2006,04,26,10,54,10.10
2006,04,26,10,55,10.10
2006,04,26,10,56,10.10
2006,04,26,10,57,10.10
2006,04,26,10,58,10.10
2006,04,26,10,59,10.10
2006,04,26,11,00,10.10
2006,04,26,11,01,10.10
2006,04,26,11,02,10.10
2006,04,26,11,03,10.10
2006,04,26,11,04,10.10
2006,04,26,11,05,10.10
2006,04,26,11,06,10.10
2006,04,26,11,07,9.90
2006,04,26,11,08,9.90
2006,04,26,11,09,9.90
2006,04,26,11,10,9.90
2006,04,26,11,11,9.90
2006,04,26,11,12,9.90
2006,04,26,11,13,9.90
2006,04,26,11,14,9.90
2006,04,26,11,15,9.90
2006,04,26,11,16,9.90
2006,04,26,11,17,9.90
2006,04,26,11,18,9.90
2006,04,26,11,19,9.90
2006,04,26,11,20,10.00
2006,04,26,11,21,9.90
2006,04,26,11,22,9.90
2006,04,26,11,23,9.90
2006,04,26,11,24,9.90
2006,04,26,11,25,10.00
2006,04,26,11,26,10.10
2006,04,26,11,27,10.10
2006,04,26,11,28,10.10
2006,04,26,11,29,10.10
2006,04,26,11,30,10.10
2006,04,26,11,31,10.00
2006,04,26,11,32,10.00
2006,04,26,11,33,10.10
2006,04,26,11,34,10.10
2006,04,26,11,35,10.10
2006,04,26,11,36,10.00
2006,04,26,11,37,9.90
2006,04,26,11,38,9.90
2006,04,26,11,39,9.90
2006,04,26,11,40,9.80
2006,04,26,11,41,9.80
2006,04,26,11,42,9.80
2006,04,26,11,43,9.80
2006,04,26,11,44,9.80
2006,04,26,11,45,9.80
2006,04,26,11,46,9.70
2006,04,26,11,47,9.70
2006,04,26,11,48,9.70
2006,04,26,11,49,9.70
2006,04,26,11,50,9.70
2006,04,26,11,51,9.70
2006,04,26,11,52,9.70
2006,04,26,11,53,9.70
2006,04,26,11,54,9.70
2006,04,26,11,55,9.70
2006,04,26,11,56,9.70
2006,04,26,11,57,9.70
2006,04,26,11,58,9.70
2006,04,26,11,59,9.70
2006,04,26,12,00,9.70
2006,04,26,12,01,9.70
2006,04,26,12,02,9.70
2006,04,26,12,03,9.70
2006,04,26,12,04,9.70
2006,04,26,12,05,9.70
2006,04,26,12,06,9.70
2006,04,26,12,07,9.80
2006,04,26,12,08,9.90
2006,04,26,12,09,9.90
2006,04,26,12,10,9.90
2006,04,26,12,11,9.90
2006,04,26,12,12,10.00
2006,04,26,12,13,10.10
2006,04,26,12,14,10.10
2006,04,26,12,15,10.10
2006,04,26,12,16,10.20
2006,04,26,12,17,10.20
2006,04,26,12,18,10.20
2006,04,26,12,19,10.30
2006,04,26,12,20,10.30
2006,04,26,12,21,10.30
2006,04,26,12,22,10.30
2006,04,26,12,23,10.40
2006,04,26,12,24,10.40
2006,04,26,12,25,10.40
2006,04,26,12,26,10.30
2006,04,26,12,27,10.30
2006,04,26,12,28,10.30
2006,04,26,12,29,10.30
2006,04,26,12,30,10.30
2006,04,26,12,31,10.30
2006,04,26,12,32,10.30
2006,04,26,12,33,10.40
2006,04,26,12,34,10.40
2006,04,26,12,35,10.40
2006,04,26,12,36,10.40
2006,04,26,12,37,10.50
2006,04,26,12,38,10.60
2006,04,26,12,39,10.60
2006,04,26,12,40,10.60
2006,04,26,12,41,10.60
2006,04,26,12,42,10.60
2006,04,26,12,43,10.60
2006,04,26,12,44,10.60
2006,04,26,12,45,10.60
2006,04,26,12,46,10.60
2006,04,26,12,47,10.60
2006,04,26,12,48,10.60
2006,04,26,12,49,10.60
2006,04,26,12,50,10.60
2006,04,26,12,51,10.60
2006,04,26,12,52,10.60
2006,04,26,12,53,10.60
2006,04,26,12,54,10.70
2006,04,26,12,55,10.70
2006,04,26,12,56,10.70
2006,04,26,12,57,10.70
2006,04,26,12,58,10.70
2006,04,26,12,59,10.70
2006,04,26,13,00,10.60
2006,04,26,13,01,10.60
2006,04,26,13,02,10.60
2006,04,26,13,03,10.60
2006,04,26,13,04,10.60
2006,04,26,13,05,10.60
2006,04,26,13,06,10.60
2006,04,26,13,07,10.60
2006,04,26,13,08,10.60
2006,04,26,13,09,10.60
2006,04,26,13,10,10.60
2006,04,26,13,11,10.60
2006,04,26,13,12,10.60
2006,04,26,13,13,10.50
2006,04,26,13,14,10.40
2006,04,26,13,15,10.40
2006,04,26,13,16,10.40
2006,04,26,13,17,10.30
2006,04,26,13,18,10.30
2006,04,26,13,19,10.20
2006,04,26,13,20,10.20
2006,04,26,13,21,10.10
2006,04,26,13,22,10.10
2006,04,26,13,23,10.00
2006,04,26,13,24,9.90
2006,04,26,13,25,9.90
2006,04,26,13,26,9.90
2006,04,26,13,27,9.90
2006,04,26,13,28,9.90
2006,04,26,13,29,9.90
2006,04,26,13,30,9.90
2006,04,26,13,31,9.90
2006,04,26,13,32,9.90
2006,04,26,13,33,10.00
2006,04,26,13,34,10.10
2006,04,26,13,35,10.10
2006,04,26,13,36,10.10
2006,04,26,13,37,10.20
2006,04,26,13,38,10.20
2006,04,26,13,39,10.20
2006,04,26,13,40,10.30
2006,04,26,13,41,10.30
2006,04,26,13,42,10.40
2006,04,26,13,43,10.40
2006,04,26,13,44,10.40
2006,04,26,13,45,10.40
2006,04,26,13,46,10.40
2006,04,26,13,47,10.40
2006,04,26,13,48,10.40
2006,04,26,13,49,10.40
2006,04,26,13,50,10.50
2006,04,26,13,51,10.60
2006,04,26,13,52,10.60
2006,04,26,13,53,10.60
2006,04,26,13,54,10.70
2006,04,26,13,55,10.70
2006,04,26,13,56,10.80
2006,04,26,13,57,10.80
2006,04,26,13,58,10.70
2006,04,26,13,59,10.70
2006,04,26,14,00,10.70
2006,04,26,14,01,10.70
2006,04,26,14,02,10.70
2006,04,26,14,03,10.70
2006,04,26,14,04,10.70
2006,04,26,14,05,10.80
2006,04,26,14,06,10.80
2006,04,26,14,07,10.80
2006,04,26,14,08,10.90
2006,04,26,14,09,10.90
2006,04,26,14,10,10.90
2006,04,26,14,11,10.80
2006,04,26,14,12,10.80
2006,04,26,14,13,10.80
2006,04,26,14,14,10.80
2006,04,26,14,15,10.80
2006,04,26,14,16,10.80
2006,04,26,14,17,10.70
2006,04,26,14,18,10.70
2006,04,26,14,19,10.70
2006,04,26,14,20,10.80
2006,04,26,14,21,10.80
2006,04,26,14,22,10.80
2006,04,26,14,23,10.80
2006,04,26,14,24,10.80
2006,04,26,14,25,10.90
2006,04,26,14,26,10.90
2006,04,26,14,27,10.90
2006,04,26,14,28,10.90
2006,04,26,14,29,10.90
2006,04,26,14,30,11.00
2006,04,26,14,31,11.10
2006,04,26,14,32,11.10
2006,04,26,14,33,11.10
2006,04,26,14,34,11.20
2006,04,26,14,35,11.20
2006,04,26,14,36,11.30
2006,04,26,14,37,11.30
2006,04,26,14,38,11.30
2006,04,26,14,39,11.30
2006,04,26,14,40,11.20
2006,04,26,14,41,11.10
2006,04,26,14,42,11.10
2006,04,26,14,43,11.10
2006,04,26,14,44,11.20
2006,04,26,14,45,11.10
2006,04,26,14,46,11.10
2006,04,26,14,47,11.10
2006,04,26,14,48,11.10
2006,04,26,14,49,11.10
2006,04,26,14,50,11.10
2006,04,26,14,51,11.10
2006,04,26,14,52,11.10
2006,04,26,14,53,11.10
2006,04,26,14,54,11.10
2006,04,26,14,55,11.20
2006,04,26,14,56,11.10
2006,04,26,14,57,11.10
2006,04,26,14,58,11.10
2006,04,26,14,59,11.10
2006,04,26,15,00,11.10
2006,04,26,15,01,11.10
2006,04,26,15,02,11.10
2006,04,26,15,03,11.10
2006,04,26,15,04,11.10
2006,04,26,15,05,11.10
2006,04,26,15,06,11.10
2006,04,26,15,07,11.10
2006,04,26,15,08,11.10
2006,04,26,15,09,11.00
2006,04,26,15,10,10.90
2006,04,26,15,11,10.90
2006,04,26,15,12,10.90
2006,04,26,15,13,10.90
2006,04,26,15,14,10.90
2006,04,26,15,15,10.90
2006,04,26,15,16,10.90
2006,04,26,15,17,10.90
2006,04,26,15,18,10.90
2006,04,26,15,19,10.90
2006,04,26,15,20,10.90
2006,04,26,15,21,10.90
2006,04,26,15,22,11.00
2006,04,26,15,23,11.10
2006,04,26,15,24,11.10
2006,04,26,15,25,11.10
2006,04,26,15,26,11.10
2006,04,26,15,27,11.10
2006,04,26,15,28,11.10
2006,04,26,15,29,11.10
2006,04,26,15,30,11.00
2006,04,26,15,31,11.00
2006,04,26,15,32,10.90
2006,04,26,15,33,10.90
2006,04,26,15,34,11.10
2006,04,26,15,35,11.10
2006,04,26,15,36,11.10
2006,04,26,15,37,11.10
2006,04,26,15,38,11.10
2006,04,26,15,39,11.10
2006,04,26,15,40,11.10
2006,04,26,15,41,11.10
2006,04,26,15,42,11.10
2006,04,26,15,43,11.10
2006,04,26,15,44,11.10
2006,04,26,15,45,11.10
2006,04,26,15,46,11.10
2006,04,26,15,47,10.90
2006,04,26,15,48,10.90
2006,04,26,15,49,10.90
2006,04,26,15,50,10.90
2006,04,26,15,51,10.90
2006,04,26,15,52,10.90
2006,04,26,15,53,10.90
2006,04,26,15,54,10.90
2006,04,26,15,55,10.90
2006,04,26,15,56,10.90
2006,04,26,15,57,11.10
2006,04,26,15,58,11.10
2006,04,26,15,59,11.10
2006,04,26,16,00,11.10
2006,04,26,16,01,11.20
2006,04,26,16,02,11.20
2006,04,26,16,03,11.20
2006,04,26,16,04,11.30
2006,04,26,16,05,11.30
2006,04,26,16,06,11.40
2006,04,26,16,07,11.40
2006,04,26,16,08,11.40
2006,04,26,16,09,11.40
2006,04,26,16,10,11.40
2006,04,26,16,11,11.40
2006,04,26,16,12,11.40
2006,04,26,16,13,11.40
2006,04,26,16,14,11.30
2006,04,26,16,15,11.20
2006,04,26,16,16,11.10
2006,04,26,16,17,11.00
2006,04,26,16,18,10.90
2006,04,26,16,19,10.80
2006,04,26,16,20,10.70
2006,04,26,16,21,10.70
2006,04,26,16,22,10.70
2006,04,26,16,23,10.60
2006,04,26,16,24,10.50
2006,04,26,16,25,10.40
2006,04,26,16,26,10.40
2006,04,26,16,27,10.40
2006,04,26,16,28,10.40
2006,04,26,16,29,10.30
2006,04,26,16,30,10.30
2006,04,26,16,31,10.30
2006,04,26,16,32,10.20
2006,04,26,16,33,10.20
2006,04,26,16,34,10.10
2006,04,26,16,35,10.10
2006,04,26,16,36,10.10
2006,04,26,16,37,10.10
2006,04,26,16,38,10.00
2006,04,26,16,39,9.90
2006,04,26,16,40,9.90
2006,04,26,16,41,9.90
2006,04,26,16,42,9.90
2006,04,26,16,43,9.90
2006,04,26,16,44,9.90
2006,04,26,16,45,9.90
2006,04,26,16,46,9.90
2006,04,26,16,47,9.90
2006,04,26,16,48,9.90
2006,04,26,16,49,9.90
2006,04,26,16,50,9.90
2006,04,26,16,51,9.90
2006,04,26,16,52,9.90
2006,04,26,16,53,9.90
2006,04,26,16,54,9.90
2006,04,26,16,55,9.90
2006,04,26,16,56,9.90
2006,04,26,16,57,9.90
2006,04,26,16,58,9.90
2006,04,26,16,59,9.90
2006,04,26,17,00,9.90
2006,04,26,17,01,9.90
2006,04,26,17,02,9.90
2006,04,26,17,03,9.90
2006,04,26,17,04,9.90
2006,04,26,17,05,9.90
2006,04,26,17,06,9.80
2006,04,26,17,07,9.80
2006,04,26,17,08,9.80
2006,04,26,17,09,9.80
2006,04,26,17,10,9.90
2006,04,26,17,11,9.90
2006,04,26,17,12,9.90
2006,04,26,17,13,9.90
2006,04,26,17,14,9.90
2006,04,26,17,15,9.90
2006,04,26,17,16,10.00
2006,04,26,17,17,10.10
2006,04,26,17,18,10.10
2006,04,26,17,19,10.10
2006,04,26,17,20,10.10
2006,04,26,17,21,10.10
2006,04,26,17,22,10.10
2006,04,26,17,23,10.10
2006,04,26,17,24,10.10
2006,04,26,17,25,10.10
2006,04,26,17,26,9.90
2006,04,26,17,27,9.90
2006,04,26,17,28,9.90
2006,04,26,17,29,9.90
2006,04,26,17,30,9.90
2006,04,26,17,31,9.90
2006,04,26,17,32,9.90
2006,04,26,17,33,9.90
2006,04,26,17,34,9.90
2006,04,26,17,35,9.90
2006,04,26,17,36,9.90
2006,04,26,17,37,9.90
2006,04,26,17,38,9.90
2006,04,26,17,39,9.90
2006,04,26,17,40,10.00
2006,04,26,17,41,10.10
2006,04,26,17,42,10.10
2006,04,26,17,43,10.10
2006,04,26,17,44,10.10
2006,04,26,17,45,10.00
2006,04,26,17,46,9.90
2006,04,26,17,47,9.90
2006,04,26,17,48,9.90
2006,04,26,17,49,9.90
2006,04,26,17,50,9.90
2006,04,26,17,51,9.90
2006,04,26,17,52,9.90